EW1736 Weather Reports


Display with metric or nautical units.
time (UTC)temp
F
wind
direction
speed
MPH
gust
MPH
rain 1hr
in
rain 24hr
in
rain mn
in
humidity
%
barometer
mb
20260505014315 64 117 4.0 8.0 0.00 0.00 0.00 77 1032.1
20260505012118 64 110 4.0 8.0 0.00 0.00 0.00 77 1032.3
20260505010623 64 109 4.0 8.0 0.00 0.00 0.00 77 1032.4
20260505005114 64 93 5.0 9.0 0.00 0.00 0.00 78 1032.7
20260505003609 64 119 5.0 9.0 0.00 0.00 0.00 77 1032.9
20260505002110 64 109 4.0 8.0 0.00 0.00 0.00 76 1033.1
20260505002025 65 165 3.0 6.0 0.00 0.00 0.00 70 1033.2
20260504235101 66 159 2.0 5.0 0.00 0.00 0.00 71 1033.4
20260504233602 65 100 1.0 5.0 0.00 0.00 0.00 71 1033.6
20260504232748 65 196 3.0 6.0 0.00 0.00 0.00 70 1033.9
20260504230554 66 180 4.0 7.0 0.00 0.00 0.00 70 1033.9
20260504225759 67 227 2.0 7.0 0.00 0.00 0.00 72 1034.2
20260504223549 65 191 2.0 6.0 0.00 0.00 0.00 75 1034.0
20260504222747 64 223 2.0 8.0 0.00 0.00 0.00 76 1034.0
20260504220545 63 203 4.0 8.0 0.00 0.00 0.00 76 1033.9
20260504215754 62 173 4.0 6.0 0.00 0.00 0.00 77 1033.8
20260504213541 62 206 3.0 4.0 0.00 0.00 0.00 78 1033.9
20260504212037 61 167 2.0 6.0 0.00 0.00 0.00 79 1033.9
20260504210537 61 189 3.0 6.0 0.00 0.00 0.00 80 1033.9
20260504205033 60 201 4.0 6.0 0.00 0.00 0.00 82 1033.8
20260504203528 60 190 2.0 5.0 0.00 0.00 0.00 85 1033.9
20260504202029 59 188 2.0 5.0 0.00 0.00 0.00 86 1033.8
20260504200525 59 215 2.0 3.0 0.00 0.00 0.00 87 1033.8
20260504195735 59 188 1.0 3.0 0.00 0.00 0.00 86 1033.6
20260504193522 58 191 2.0 4.0 0.00 0.00 0.00 86 1033.5
20260504192012 58 180 2.0 3.0 0.00 0.00 0.00 86 1033.4
20260504191219 58 201 0.0 4.0 0.00 0.00 0.00 85 1033.3
20260504185702 58 196 3.0 4.0 0.00 0.00 0.00 85 1033.2
20260504183504 58 205 2.0 5.0 0.00 0.00 0.00 85 1033.2
20260504182005 58 199 2.0 5.0 0.00 0.00 0.00 83 1033.3
20260504180500 58 217 2.0 5.0 0.00 0.00 0.00 83 1033.4
20260504174956 58 196 3.0 6.0 0.00 0.00 0.00 83 1033.3
20260504173451 58 190 3.0 8.0 0.00 0.00 0.00 83 1033.2
20260504171947 58 204 4.0 5.0 0.00 0.00 0.00 83 1033.3
20260504171149 58 197 4.0 6.0 0.00 0.00 0.00 83 1033.2
20260504160435 58 203 3.0 6.0 0.00 0.00 0.00 85 1033.4
20260504150427 58 194 3.0 7.0 0.00 0.00 0.00 85 1034.0
20260504140409 58 214 4.0 8.0 0.00 0.00 0.00 83 1034.5
20260504130402 58 184 3.0 6.0 0.00 0.00 0.00 83 1034.8
20260504110341 58 211 3.0 6.0 0.00 0.00 0.00 84 1034.8
20260504080305 58 188 2.0 5.0 0.00 0.00 0.00 87 1034.8
20260504070257 59 192 1.0 4.0 0.00 0.00 0.00 82 1034.3
20260504060234 61 109 3.0 6.0 0.00 0.00 0.00 78 1033.7
20260504050226 62 107 3.0 7.0 0.00 0.00 0.00 78 1033.7
20260504044722 62 109 4.0 7.0 0.00 0.00 0.00 77 1033.8
20260504043223 62 111 3.0 6.0 0.00 0.00 0.00 77 1033.6
20260504041718 63 102 2.0 4.0 0.00 0.00 0.00 74 1033.7
20260504040907 64 76 1.0 6.0 0.00 0.00 0.00 74 1033.7
20260504035415 63 111 2.0 4.0 0.00 0.00 0.00 75 1033.5
20260504033210 62 98 2.0 7.0 0.00 0.00 0.00 75 1033.6
20260504031710 63 101 2.0 6.0 0.00 0.00 0.00 75 1033.6
20260504030206 63 105 2.0 7.0 0.00 0.00 0.00 74 1033.7
20260504030109 63 73 2.0 5.0 0.00 0.00 0.00 75 1033.7
20260504023907 63 49 1.0 4.0 0.00 0.00 0.00 75 1033.6
20260504021658 63 51 2.0 6.0 0.00 0.00 0.00 74 1033.6
20260504020200 63 89 2.0 7.0 0.00 0.00 0.00 74 1033.6